Ogden, KS

7:35 PM CST on February 09, 2016 (GMT -0600)
Manhattan Regional

Weather History for KMHK - November, 2013

Change the Weather History Date:

Monday, November 4, 2013

  Actual Average Record
Temperature  
Mean Temperature 53 °F 48 °F  
Max Temperature 62 °F 61 °F 77 °F (2008)
Min Temperature 44 °F 35 °F 23 °F (2011)
Degree Days  
Heating Degree Days 12 17  
Month to date heating degree days 57 67  
Since 1 July heating degree days 409 466  
Cooling Degree Days 0 0  
Month to date cooling degree days 0 0  
Year to date cooling degree days 1513 1361  
Growing Degree Days 4 (Base 50)    
Moisture  
Dew Point 43 °F    
Average Humidity 71    
Maximum Humidity 93    
Minimum Humidity 49    
Precipitation  
Precipitation 0.00 in 0.08 in 0.20 in (2003)
Month to date precipitation 0.02 0.32  
Year to date precipitation 28.08 30.25  
Sea Level Pressure  
Sea Level Pressure 29.93 in    
Wind  
Wind Speed 8 mph (SSW)    
Max Wind Speed 21 mph    
Max Gust Speed 28 mph    
Visibility 10 miles    
Events      
T = Trace of Precipitation, MM = Missing Value Source: NWS Daily Summary

Daily Weather History Graph

Daily Weather History Graph

Search for Another Location

Airport or City:

Trip Planner

Search our weather history database for the weather conditions in past years. The results will help you decide how hot, cold, wet, or windy it might be!

Date:

Astronomy

Nov. 04, 2013 Rise Set
Actual Time 6:57 AM CST 5:22 PM CST
Civil Twilight 6:29 AM CST 5:50 PM CST
Nautical Twilight 5:58 AM CST 6:21 PM CST
Astronomical Twilight 5:26 AM CST 6:52 PM CST
Moon 8:09 AM CST (11/4) 6:28 PM CST (11/4)
Length of Visible Light 11h 20m
Length of Day
10h 24m
New Moon, 2% of the Moon is Illuminated
Nov 4
New Moon
Nov 9
First Quarter
Nov 17
Full
Nov 25
Last Quarter
Dec 2
New

Hourly Weather History & Observations

Time (CST) Temp. Dew Point Humidity Pressure Visibility Wind Dir Wind Speed Gust Speed Precip Events Conditions
12:52 AM 55.9 °F 39.0 °F 53% 29.81 in 10.0 mi South 12.7 mph 21.9 mph N/A   Clear
1:52 AM 55.0 °F 39.9 °F 57% 29.79 in 10.0 mi South 16.1 mph 25.3 mph N/A   Clear
2:52 AM 54.0 °F 41.0 °F 62% 29.78 in 10.0 mi South 16.1 mph 26.5 mph N/A   Clear
3:52 AM 53.1 °F 42.1 °F 66% 29.78 in 10.0 mi South 13.8 mph 20.7 mph N/A   Clear
4:52 AM 53.1 °F 43.0 °F 69% 29.81 in 10.0 mi SSW 13.8 mph 27.6 mph N/A   Partly Cloudy
5:52 AM 52.0 °F 44.1 °F 74% 29.82 in 10.0 mi SSW 10.4 mph - N/A   Clear
6:52 AM 51.1 °F 44.1 °F 77% 29.83 in 10.0 mi SSW 9.2 mph - N/A   Clear
7:52 AM 53.1 °F 45.0 °F 74% 29.85 in 10.0 mi SSW 11.5 mph 20.7 mph N/A   Scattered Clouds
8:52 AM 55.9 °F 46.0 °F 69% 29.88 in 10.0 mi SSW 17.3 mph 25.3 mph N/A   Mostly Cloudy
9:23 AM 55.4 °F 46.4 °F 72% 29.89 in 10.0 mi SW 13.8 mph 25.3 mph N/A   Overcast
9:49 AM 55.4 °F 44.6 °F 67% 29.90 in 10.0 mi SW 12.7 mph 20.7 mph N/A   Overcast
9:52 AM 55.9 °F 45.0 °F 67% 29.90 in 10.0 mi SW 18.4 mph 27.6 mph N/A   Overcast
10:52 AM 57.0 °F 44.1 °F 62% 29.93 in 10.0 mi West 9.2 mph - N/A   Overcast
11:52 AM 60.1 °F 41.0 °F 49% 29.95 in 10.0 mi Variable 4.6 mph - N/A   Partly Cloudy
12:52 PM 62.1 °F 44.1 °F 52% 29.94 in 10.0 mi North 4.6 mph - N/A   Clear
1:52 PM 60.1 °F 44.1 °F 55% 29.96 in 10.0 mi North 4.6 mph - N/A   Partly Cloudy
2:52 PM 62.1 °F 44.1 °F 52% 29.97 in 10.0 mi NE 6.9 mph - N/A   Partly Cloudy
3:52 PM 61.0 °F 44.1 °F 54% 29.98 in 10.0 mi NNE 4.6 mph - N/A   Clear
4:52 PM 59.0 °F 44.1 °F 58% 29.99 in 10.0 mi East 5.8 mph - N/A   Partly Cloudy
5:52 PM 53.1 °F 44.1 °F 71% 30.03 in 10.0 mi Calm Calm - N/A   Clear
6:52 PM 48.0 °F 44.1 °F 86% 30.05 in 9.0 mi Calm Calm - N/A   Clear
7:52 PM 45.0 °F 43.0 °F 93% 30.06 in 10.0 mi Calm Calm - N/A   Clear
8:52 PM 46.9 °F 44.1 °F 90% 30.08 in 10.0 mi North 3.5 mph - N/A   Clear
9:52 PM 48.9 °F 42.1 °F 77% 30.09 in 10.0 mi NNE 4.6 mph - N/A   Scattered Clouds
10:52 PM 48.0 °F 42.1 °F 80% 30.08 in 10.0 mi NNE 3.5 mph - N/A   Scattered Clouds
11:52 PM 48.0 °F 43.0 °F 83% 30.08 in 10.0 mi NE 4.6 mph - N/A   Overcast